Time,TemperatureF,DewpointF,PressureIn,WindDirection,WindDirectionDegrees,WindSpeedMPH,WindSpeedGustMPH,Humidity,HourlyPrecipIn,Conditions,Clouds,dailyrainin,SoftwareType,DateUTC
2013-01-01 00:00:00,27.9,22.5,30.11,NW,320,7.0,8.0,80,0.00,,---,0.00,VWS V14.01,2013-01-01 05:00:00,
2013-01-01 00:01:00,28.3,22.9,30.11,North,3,4.0,10.0,80,0.00,,---,0.03,VWS V14.01,2013-01-01 05:01:00,
2013-01-01 00:05:00,28.3,22.9,30.12,WNW,303,5.0,8.0,80,0.00,,---,0.00,VWS V14.01,2013-01-01 05:05:00,
2013-01-01 00:10:00,28.3,22.9,30.12,NNW,340,5.0,8.0,80,0.00,,---,0.00,VWS V14.01,2013-01-01 05:10:00,
2013-01-01 00:15:00,28.2,22.8,30.12,NNW,328,5.0,9.0,80,0.00,,---,0.00,VWS V14.01,2013-01-01 05:15:00,
2013-01-01 00:20:00,28.2,22.5,30.12,NNW,327,5.0,9.0,79,0.00,,---,0.00,VWS V14.01,2013-01-01 05:20:00,
2013-01-01 00:25:00,28.2,22.5,30.11,NW,315,6.0,9.0,79,0.00,,---,0.00,VWS V14.01,2013-01-01 05:25:00,
2013-01-01 00:30:00,27.7,22.6,30.11,NW,314,3.0,9.0,81,0.00,,---,0.00,VWS V14.01,2013-01-01 05:30:00,
2013-01-01 00:31:00,28.1,22.7,30.11,NW,316,4.0,6.0,80,0.00,,---,0.00,VWS V14.01,2013-01-01 05:31:00,
2013-01-01 00:36:00,28.1,22.7,30.11,NNW,332,3.0,7.0,80,0.00,,---,0.00,VWS V14.01,2013-01-01 05:36:00,
2013-01-01 00:41:00,28.1,22.7,30.11,NW,307,7.0,8.0,80,0.00,,---,0.00,VWS V14.01,2013-01-01 05:41:00,
2013-01-01 00:46:00,28.1,22.4,30.11,NNW,342,5.0,8.0,79,0.00,,---,0.00,VWS V14.01,2013-01-01 05:46:00,
2013-01-01 00:52:00,28.0,22.6,30.11,NW,318,3.0,8.0,80,0.00,,---,0.00,VWS V14.01,2013-01-01 05:52:00,
2013-01-01 00:57:00,28.0,22.6,30.11,North,358,4.0,8.0,80,0.00,,---,0.00,VWS V14.01,2013-01-01 05:57:00,
2013-01-01 01:00:00,27.6,22.2,30.10,NW,321,6.0,7.0,80,0.00,,---,0.00,VWS V14.01,2013-01-01 06:00:00,
2013-01-01 01:02:00,27.9,22.5,30.11,NW,325,7.0,8.0,80,0.00,,---,0.00,VWS V14.01,2013-01-01 06:02:00,
2013-01-01 01:07:00,27.8,22.4,30.10,NW,323,5.0,9.0,80,0.00,,---,0.00,VWS V14.01,2013-01-01 06:07:00,
2013-01-01 01:12:00,27.7,22.4,30.11,NNW,328,3.0,9.0,80,0.00,,---,0.00,VWS V14.01,2013-01-01 06:12:00,
2013-01-01 01:18:00,27.7,22.4,30.11,NW,320,4.0,9.0,80,0.00,,---,0.00,VWS V14.01,2013-01-01 06:18:00,
2013-01-01 01:23:00,27.7,22.6,30.10,NW,309,4.0,9.0,81,0.00,,---,0.00,VWS V14.01,2013-01-01 06:23:00,
2013-01-01 01:28:00,27.7,22.6,30.11,NW,318,7.0,9.0,81,0.00,,---,0.00,VWS V14.01,2013-01-01 06:28:00,
2013-01-01 01:30:00,27.6,22.0,30.10,NW,309,5.0,6.0,79,0.00,,---,0.00,VWS V14.01,2013-01-01 06:30:00,
2013-01-01 01:33:00,27.7,22.4,30.11,NNW,329,3.0,5.0,80,0.00,,---,0.00,VWS V14.01,2013-01-01 06:33:00,
2013-01-01 01:38:00,27.7,22.4,30.10,NW,319,6.0,7.0,80,0.00,,---,0.00,VWS V14.01,2013-01-01 06:38:00,
2013-01-01 01:44:00,27.7,22.4,30.11,WNW,294,4.0,7.0,80,0.00,,---,0.00,VWS V14.01,2013-01-01 06:44:00,
2013-01-01 01:49:00,27.7,22.0,30.11,NW,315,4.0,7.0,79,0.00,,---,0.00,VWS V14.01,2013-01-01 06:49:00,
2013-01-01 01:54:00,27.7,22.4,30.10,NW,316,4.0,7.0,80,0.00,,---,0.00,VWS V14.01,2013-01-01 06:54:00,
2013-01-01 01:59:00,27.6,22.2,30.10,NW,305,4.0,7.0,80,0.00,,---,0.00,VWS V14.01,2013-01-01 06:59:00,
2013-01-01 02:00:00,27.6,22.2,30.10,NW,321,6.0,7.0,80,0.00,,---,0.00,VWS V14.01,2013-01-01 07:00:00,
2013-01-01 02:05:00,27.6,22.2,30.10,NNW,328,4.0,6.0,80,0.00,,---,0.00,VWS V14.01,2013-01-01 07:05:00,
2013-01-01 02:10:00,27.6,22.2,30.10,NW,318,4.0,6.0,80,0.00,,---,0.00,VWS V14.01,2013-01-01 07:10:00,
2013-01-01 02:15:00,27.6,22.2,30.10,NW,321,5.0,6.0,80,0.00,,---,0.00,VWS V14.01,2013-01-01 07:15:00,
2013-01-01 02:20:00,27.6,22.2,30.10,NW,316,4.0,6.0,80,0.00,,---,0.00,VWS V14.01,2013-01-01 07:20:00,
2013-01-01 02:25:00,27.6,22.0,30.10,NW,318,2.0,6.0,79,0.00,,---,0.00,VWS V14.01,2013-01-01 07:25:00,
2013-01-01 02:30:00,27.9,22.5,30.12,NW,325,5.0,6.0,80,0.00,,---,0.00,VWS V14.01,2013-01-01 07:30:00,
2013-01-01 02:31:00,27.6,22.0,30.10,NW,312,5.0,5.0,79,0.00,,---,0.00,VWS V14.01,2013-01-01 07:31:00,
2013-01-01 02:36:00,27.7,22.0,30.10,NW,309,5.0,7.0,79,0.00,,---,0.00,VWS V14.01,2013-01-01 07:36:00,
2013-01-01 02:41:00,27.7,22.0,30.11,NW,322,5.0,7.0,79,0.00,,---,0.00,VWS V14.01,2013-01-01 07:41:00,
2013-01-01 02:46:00,27.6,22.0,30.11,WNW,302,3.0,7.0,79,0.00,,---,0.00,VWS V14.01,2013-01-01 07:46:00,
2013-01-01 02:51:00,27.6,22.0,30.11,NW,307,2.0,7.0,79,0.00,,---,0.00,VWS V14.01,2013-01-01 07:51:00,
2013-01-01 02:57:00,27.7,22.4,30.11,NW,310,4.0,7.0,80,0.00,,---,0.00,VWS V14.01,2013-01-01 07:57:00,
2013-01-01 03:00:00,28.0,22.0,30.12,NNW,338,3.0,7.0,78,0.00,,---,0.00,VWS V14.01,2013-01-01 08:00:00,
2013-01-01 03:02:00,27.7,22.4,30.11,NW,326,3.0,3.0,80,0.00,,---,0.00,VWS V14.01,2013-01-01 08:02:00,
2013-01-01 03:07:00,27.7,22.4,30.12,NW,326,3.0,5.0,80,0.00,,---,0.00,VWS V14.01,2013-01-01 08:07:00,
2013-01-01 03:12:00,27.7,22.4,30.11,NW,311,4.0,5.0,80,0.00,,---,0.00,VWS V14.01,2013-01-01 08:12:00,
2013-01-01 03:17:00,27.8,22.4,30.12,NW,319,3.0,5.0,80,0.00,,---,0.00,VWS V14.01,2013-01-01 08:17:00,
2013-01-01 03:23:00,27.9,22.8,30.12,North,349,4.0,6.0,81,0.00,,---,0.00,VWS V14.01,2013-01-01 08:23:00,
2013-01-01 03:28:00,27.9,22.5,30.12,NNW,336,3.0,6.0,80,0.00,,---,0.00,VWS V14.01,2013-01-01 08:28:00,
2013-01-01 03:30:00,27.9,21.9,30.11,NW,319,1.0,6.0,78,0.00,,---,0.00,VWS V14.01,2013-01-01 08:30:00,
2013-01-01 03:33:00,27.9,22.5,30.12,NW,312,3.0,6.0,80,0.00,,---,0.00,VWS V14.01,2013-01-01 08:33:00,
2013-01-01 03:38:00,28.0,22.6,30.12,North,355,4.0,7.0,80,0.00,,---,0.00,VWS V14.01,2013-01-01 08:38:00,
2013-01-01 03:43:00,28.0,22.6,30.12,NW,314,3.0,7.0,80,0.00,,---,0.00,VWS V14.01,2013-01-01 08:43:00,
2013-01-01 03:49:00,28.0,22.3,30.12,NW,325,2.0,7.0,79,0.00,,---,0.00,VWS V14.01,2013-01-01 08:49:00,
2013-01-01 03:54:00,28.0,22.3,30.11,NW,319,4.0,7.0,79,0.00,,---,0.00,VWS V14.01,2013-01-01 08:54:00,
2013-01-01 03:59:00,28.0,22.3,30.12,WNW,302,5.0,7.0,79,0.00,,---,0.00,VWS V14.01,2013-01-01 08:59:00,
2013-01-01 04:00:00,28.0,22.0,30.11,NW,323,3.0,5.0,78,0.00,,---,0.00,VWS V14.01,2013-01-01 09:00:00,
2013-01-01 04:04:00,28.0,22.0,30.12,NW,305,4.0,5.0,78,0.00,,---,0.00,VWS V14.01,2013-01-01 09:04:00,
2013-01-01 04:10:00,28.0,22.0,30.12,NW,319,2.0,6.0,78,0.00,,---,0.00,VWS V14.01,2013-01-01 09:10:00,
2013-01-01 04:15:00,28.0,22.0,30.12,NNW,344,5.0,6.0,78,0.00,,---,0.00,VWS V14.01,2013-01-01 09:15:00,
2013-01-01 04:20:00,28.0,22.0,30.12,NW,314,4.0,6.0,78,0.00,,---,0.00,VWS V14.01,2013-01-01 09:20:00,
2013-01-01 04:25:00,27.9,21.9,30.12,NW,325,2.0,6.0,78,0.00,,---,0.00,VWS V14.01,2013-01-01 09:25:00,
2013-01-01 04:30:00,27.9,21.9,30.11,NW,319,1.0,6.0,78,0.00,,---,0.00,VWS V14.01,2013-01-01 09:30:00,
2013-01-01 04:36:00,27.8,21.9,30.12,NW,321,3.0,4.0,78,0.00,,---,0.00,VWS V14.01,2013-01-01 09:36:00,
2013-01-01 04:41:00,27.9,21.9,30.12,NW,325,3.0,4.0,78,0.00,,---,0.00,VWS V14.01,2013-01-01 09:41:00,
2013-01-01 04:46:00,27.9,21.9,30.12,WNW,300,3.0,5.0,78,0.00,,---,0.00,VWS V14.01,2013-01-01 09:46:00,
2013-01-01 04:51:00,28.0,22.0,30.12,NW,312,2.0,5.0,78,0.00,,---,0.00,VWS V14.01,2013-01-01 09:51:00,
2013-01-01 04:56:00,28.0,22.0,30.12,NW,325,2.0,5.0,78,0.00,,---,0.00,VWS V14.01,2013-01-01 09:56:00,
2013-01-01 05:00:00,28.0,22.0,30.11,NW,323,3.0,5.0,78,0.00,,---,0.00,VWS V14.01,2013-01-01 10:00:00,
2013-01-01 05:02:00,28.0,22.0,30.11,NW,320,4.0,4.0,78,0.00,,---,0.00,VWS V14.01,2013-01-01 10:02:00,
2013-01-01 05:07:00,28.0,22.0,30.11,North,354,2.0,5.0,78,0.00,,---,0.00,VWS V14.01,2013-01-01 10:07:00,
2013-01-01 05:12:00,28.0,21.7,30.11,NNW,338,2.0,5.0,77,0.00,,---,0.00,VWS V14.01,2013-01-01 10:12:00,
2013-01-01 05:17:00,27.9,21.6,30.11,NNW,342,5.0,6.0,77,0.00,,---,0.00,VWS V14.01,2013-01-01 10:17:00,
2013-01-01 05:22:00,27.8,21.2,30.11,NW,320,4.0,7.0,76,0.00,,---,0.00,VWS V14.01,2013-01-01 10:22:00,
2013-01-01 05:28:00,27.7,21.1,30.11,NNW,331,4.0,7.0,76,0.00,,---,0.00,VWS V14.01,2013-01-01 10:28:00,
2013-01-01 05:30:00,27.4,20.5,30.13,WNW,302,2.0,5.0,75,0.00,,---,0.00,VWS V14.01,2013-01-01 10:30:00,
2013-01-01 05:33:00,27.6,21.0,30.12,WNW,288,1.0,4.0,76,0.00,,---,0.00,VWS V14.01,2013-01-01 10:33:00,
2013-01-01 05:38:00,27.5,20.9,30.12,WNW,300,3.0,5.0,76,0.00,,---,0.00,VWS V14.01,2013-01-01 10:38:00,
2013-01-01 05:43:00,27.5,20.9,30.11,WNW,297,3.0,6.0,76,0.00,,---,0.00,VWS V14.01,2013-01-01 10:43:00,
2013-01-01 05:49:00,27.4,20.8,30.10,NW,319,3.0,6.0,76,0.00,,---,0.00,VWS V14.01,2013-01-01 10:49:00,
2013-01-01 05:54:00,27.5,20.9,30.11,NW,318,3.0,6.0,76,0.00,,---,0.00,VWS V14.01,2013-01-01 10:54:00,
2013-01-01 05:59:00,27.4,20.8,30.12,NW,311,3.0,6.0,76,0.00,,---,0.00,VWS V14.01,2013-01-01 10:59:00,
2013-01-01 06:00:00,27.5,20.6,30.15,West,277,1.0,3.0,75,0.00,,---,0.00,VWS V14.01,2013-01-01 11:00:00,
2013-01-01 06:04:00,27.4,20.8,30.11,NW,322,2.0,4.0,76,0.00,,---,0.00,VWS V14.01,2013-01-01 11:04:00,
2013-01-01 06:09:00,27.4,20.8,30.12,WNW,302,3.0,5.0,76,0.00,,---,0.00,VWS V14.01,2013-01-01 11:09:00,
2013-01-01 06:15:00,27.4,20.5,30.12,NW,315,2.0,5.0,75,0.00,,---,0.00,VWS V14.01,2013-01-01 11:15:00,
2013-01-01 06:20:00,27.4,20.5,30.12,NNW,329,2.0,5.0,75,0.00,,---,0.00,VWS V14.01,2013-01-01 11:20:00,
2013-01-01 06:25:00,27.4,20.5,30.12,NW,320,0.0,5.0,75,0.00,,---,0.00,VWS V14.01,2013-01-01 11:25:00,
2013-01-01 06:30:00,27.4,20.5,30.13,WNW,302,2.0,5.0,75,0.00,,---,0.00,VWS V14.01,2013-01-01 11:30:00,
2013-01-01 06:35:00,27.4,20.2,30.13,NW,311,2.0,3.0,74,0.00,,---,0.00,VWS V14.01,2013-01-01 11:35:00,
2013-01-01 06:41:00,27.4,20.5,30.14,NW,316,2.0,3.0,75,0.00,,---,0.00,VWS V14.01,2013-01-01 11:41:00,
2013-01-01 06:46:00,27.4,20.5,30.14,WSW,248,0.0,3.0,75,0.00,,---,0.00,VWS V14.01,2013-01-01 11:46:00,
2013-01-01 06:51:00,27.4,20.5,30.14,WNW,284,1.0,3.0,75,0.00,,---,0.00,VWS V14.01,2013-01-01 11:51:00,
2013-01-01 06:56:00,27.4,20.5,30.14,West,274,1.0,3.0,75,0.00,,---,0.00,VWS V14.01,2013-01-01 11:56:00,
2013-01-01 07:00:00,28.5,21.0,30.14,NNE,25,6.0,7.0,73,0.00,,---,0.00,VWS V14.01,2013-01-01 12:00:00,
2013-01-01 07:01:00,27.5,20.3,30.15,WNW,289,2.0,2.0,74,0.00,,---,0.00,VWS V14.01,2013-01-01 12:01:00,
2013-01-01 07:07:00,27.5,20.3,30.15,WNW,298,1.0,3.0,74,0.00,,---,0.00,VWS V14.01,2013-01-01 12:07:00,
2013-01-01 07:12:00,27.7,20.5,30.15,West,267,2.0,3.0,74,0.00,,---,0.00,VWS V14.01,2013-01-01 12:12:00,
2013-01-01 07:17:00,27.8,20.6,30.15,WNW,297,3.0,4.0,74,0.00,,---,0.00,VWS V14.01,2013-01-01 12:17:00,
2013-01-01 07:22:00,27.9,20.7,30.14,NW,316,2.0,4.0,74,0.00,,---,0.00,VWS V14.01,2013-01-01 12:22:00,
2013-01-01 07:27:00,28.0,20.8,30.14,NW,318,1.0,6.0,74,0.00,,---,0.00,VWS V14.01,2013-01-01 12:27:00,
2013-01-01 07:30:00,26.8,21.2,30.17,NNE,22,4.0,9.0,79,0.00,,---,0.00,VWS V14.01,2013-01-01 12:30:00,
2013-01-01 07:33:00,28.0,20.8,30.15,NW,304,5.0,5.0,74,0.00,,---,0.00,VWS V14.01,2013-01-01 12:33:00,
2013-01-01 07:38:00,28.1,20.6,30.14,NW,313,1.0,5.0,73,0.00,,---,0.00,VWS V14.01,2013-01-01 12:38:00,
2013-01-01 07:43:00,28.2,20.7,30.14,NW,305,2.0,5.0,73,0.00,,---,0.00,VWS V14.01,2013-01-01 12:43:00,
2013-01-01 07:48:00,28.3,20.8,30.14,NW,318,3.0,5.0,73,0.00,,---,0.00,VWS V14.01,2013-01-01 12:48:00,
2013-01-01 07:54:00,28.4,20.9,30.14,NNW,328,2.0,5.0,73,0.00,,---,0.00,VWS V14.01,2013-01-01 12:54:00,
2013-01-01 07:59:00,28.4,20.9,30.14,North,352,6.0,6.0,73,0.00,,---,0.00,VWS V14.01,2013-01-01 12:59:00,
2013-01-01 08:00:00,28.5,21.0,30.14,NNE,25,6.0,7.0,73,0.00,,---,0.00,VWS V14.01,2013-01-01 13:00:00,
2013-01-01 08:04:00,28.3,20.8,30.15,NNW,327,4.0,6.0,73,0.00,,---,0.00,VWS V14.01,2013-01-01 13:04:00,
2013-01-01 08:09:00,28.0,21.1,30.15,North,6,4.0,6.0,75,0.00,,---,0.00,VWS V14.01,2013-01-01 13:09:00,
2013-01-01 08:14:00,27.7,21.1,30.16,NE,44,3.0,9.0,76,0.00,,---,0.00,VWS V14.01,2013-01-01 13:14:00,
2013-01-01 08:20:00,27.3,21.1,30.17,NNE,13,4.0,9.0,77,0.00,,---,0.00,VWS V14.01,2013-01-01 13:20:00,
2013-01-01 08:25:00,27.0,21.1,30.17,NE,43,3.0,9.0,78,0.00,,---,0.00,VWS V14.01,2013-01-01 13:25:00,
2013-01-01 08:30:00,26.8,21.2,30.17,North,8,3.0,9.0,79,0.00,,---,0.00,VWS V14.01,2013-01-01 13:30:00,
2013-01-01 08:35:00,26.6,21.0,30.18,NE,45,3.0,8.0,79,0.00,,---,0.00,VWS V14.01,2013-01-01 13:35:00,
2013-01-01 08:40:00,26.5,20.9,30.17,NE,47,1.0,8.0,79,0.00,,---,0.00,VWS V14.01,2013-01-01 13:40:00,
2013-01-01 08:46:00,26.4,20.8,30.17,NNE,31,0.0,8.0,79,0.00,,---,0.00,VWS V14.01,2013-01-01 13:46:00,
2013-01-01 08:51:00,26.3,20.7,30.17,NNE,30,0.0,8.0,79,0.00,,---,0.00,VWS V14.01,2013-01-01 13:51:00,
2013-01-01 08:56:00,26.3,21.0,30.17,NNE,32,1.0,8.0,80,0.00,,---,0.00,VWS V14.01,2013-01-01 13:56:00,
2013-01-01 09:00:00,26.3,19.2,30.17,NNE,12,5.0,10.0,74,0.00,,---,0.00,VWS V14.01,2013-01-01 14:00:00,
2013-01-01 09:01:00,26.2,20.9,30.18,NNE,19,4.0,4.0,80,0.00,,---,0.00,VWS V14.01,2013-01-01 14:01:00,
2013-01-01 09:06:00,26.2,20.3,30.17,NNE,23,4.0,9.0,78,0.00,,---,0.00,VWS V14.01,2013-01-01 14:06:00,
2013-01-01 09:12:00,26.1,19.9,30.17,NE,41,4.0,9.0,77,0.00,,---,0.00,VWS V14.01,2013-01-01 14:12:00,
2013-01-01 09:17:00,26.2,19.7,30.18,NNE,31,1.0,9.0,76,0.00,,---,0.00,VWS V14.01,2013-01-01 14:17:00,
2013-01-01 09:22:00,26.2,19.4,30.18,NNE,32,1.0,9.0,75,0.00,,---,0.00,VWS V14.01,2013-01-01 14:22:00,
2013-01-01 09:27:00,26.2,19.1,30.18,NE,44,4.0,9.0,74,0.00,,---,0.00,VWS V14.01,2013-01-01 14:27:00,
2013-01-01 09:30:00,26.4,19.6,30.14,NE,43,3.0,13.0,75,0.00,,---,0.00,VWS V14.01,2013-01-01 14:30:00,
2013-01-01 09:33:00,26.2,19.1,30.18,NNE,25,1.0,5.0,74,0.00,,---,0.00,VWS V14.01,2013-01-01 14:33:00,
2013-01-01 09:38:00,26.2,19.1,30.17,NNE,23,5.0,7.0,74,0.00,,---,0.00,VWS V14.01,2013-01-01 14:38:00,
2013-01-01 09:43:00,26.2,19.1,30.17,North,358,5.0,7.0,74,0.00,,---,0.00,VWS V14.01,2013-01-01 14:43:00,
2013-01-01 09:48:00,26.2,19.1,30.17,NNE,29,5.0,8.0,74,0.00,,---,0.00,VWS V14.01,2013-01-01 14:48:00,
2013-01-01 09:53:00,26.3,18.8,30.17,NNE,27,9.0,9.0,73,0.00,,---,0.00,VWS V14.01,2013-01-01 14:53:00,
2013-01-01 09:59:00,26.3,19.1,30.17,NNE,28,5.0,10.0,74,0.00,,---,0.00,VWS V14.01,2013-01-01 14:59:00,
2013-01-01 10:00:00,26.4,20.2,30.17,NE,37,2.0,12.0,77,0.00,,---,0.00,VWS V14.01,2013-01-01 15:00:00,
2013-01-01 10:04:00,26.4,19.2,30.17,NE,50,3.0,7.0,74,0.00,,---,0.00,VWS V14.01,2013-01-01 15:04:00,
2013-01-01 10:09:00,26.5,19.0,30.17,North,9,6.0,7.0,73,0.00,,---,0.00,VWS V14.01,2013-01-01 15:09:00,
2013-01-01 10:14:00,26.6,19.4,30.17,NNE,30,5.0,7.0,74,0.00,,---,0.00,VWS V14.01,2013-01-01 15:14:00,
2013-01-01 10:19:00,26.5,19.4,30.15,NNE,30,9.0,13.0,74,0.00,,---,0.00,VWS V14.01,2013-01-01 15:19:00,
2013-01-01 10:25:00,26.4,19.6,30.15,NNE,12,4.0,13.0,75,0.00,,---,0.00,VWS V14.01,2013-01-01 15:25:00,
2013-01-01 10:30:00,26.3,19.5,30.14,NE,38,7.0,13.0,75,0.00,,---,0.00,VWS V14.01,2013-01-01 15:30:00,
2013-01-01 10:35:00,26.3,19.8,30.15,NNE,25,7.0,10.0,76,0.00,,---,0.00,VWS V14.01,2013-01-01 15:35:00,
2013-01-01 10:40:00,26.5,20.0,30.15,NNE,33,4.0,11.0,76,0.00,,---,0.00,VWS V14.01,2013-01-01 15:40:00,
2013-01-01 10:45:00,26.5,20.0,30.16,North,6,9.0,12.0,76,0.00,,---,0.00,VWS V14.01,2013-01-01 15:45:00,
2013-01-01 10:51:00,26.4,19.9,30.16,NE,39,3.0,12.0,76,0.00,,---,0.00,VWS V14.01,2013-01-01 15:51:00,
2013-01-01 10:56:00,26.4,19.9,30.17,North,360,6.0,12.0,76,0.00,,---,0.00,VWS V14.01,2013-01-01 15:56:00,
2013-01-01 11:00:00,27.9,21.0,30.17,North,6,4.0,7.0,75,0.00,,---,0.00,VWS V14.01,2013-01-01 16:00:00,
2013-01-01 11:01:00,26.5,20.3,30.17,NNE,15,2.0,2.0,77,0.00,,---,0.00,VWS V14.01,2013-01-01 16:01:00,
2013-01-01 11:06:00,26.6,20.4,30.18,SE,139,0.0,6.0,77,0.00,,---,0.00,VWS V14.01,2013-01-01 16:06:00,
2013-01-01 11:11:00,27.1,21.2,30.19,ENE,77,2.0,6.0,78,0.00,,---,0.00,VWS V14.01,2013-01-01 16:11:00,
2013-01-01 11:17:00,27.2,20.6,30.19,NE,55,2.0,6.0,76,0.00,,---,0.00,VWS V14.01,2013-01-01 16:17:00,
2013-01-01 11:22:00,27.2,20.6,30.18,North,358,3.0,6.0,76,0.00,,---,0.00,VWS V14.01,2013-01-01 16:22:00,
2013-01-01 11:27:00,27.1,20.5,30.18,NNE,26,5.0,6.0,76,0.00,,---,0.00,VWS V14.01,2013-01-01 16:27:00,
2013-01-01 11:30:00,26.9,20.7,30.17,NNE,18,5.0,6.0,77,0.00,,---,0.00,VWS V14.01,2013-01-01 16:30:00,
2013-01-01 11:32:00,26.9,20.7,30.18,NNE,19,3.0,5.0,77,0.00,,---,0.00,VWS V14.01,2013-01-01 16:32:00,
2013-01-01 11:38:00,26.8,20.6,30.17,NNE,25,3.0,7.0,77,0.00,,---,0.00,VWS V14.01,2013-01-01 16:38:00,
2013-01-01 11:43:00,27.3,21.4,30.17,NNE,23,0.0,7.0,78,0.00,,---,0.00,VWS V14.01,2013-01-01 16:43:00,
2013-01-01 11:48:00,27.8,21.2,30.17,ESE,115,2.0,7.0,76,0.00,,---,0.00,VWS V14.01,2013-01-01 16:48:00,
2013-01-01 11:53:00,28.2,22.2,30.17,East,93,1.0,7.0,78,0.00,,---,0.00,VWS V14.01,2013-01-01 16:53:00,
2013-01-01 11:58:00,28.1,21.2,30.17,North,352,3.0,7.0,75,0.00,,---,0.00,VWS V14.01,2013-01-01 16:58:00,
2013-01-01 12:00:00,28.3,21.4,30.17,SE,143,2.0,6.0,75,0.00,,---,0.00,VWS V14.01,2013-01-01 17:00:00,
2013-01-01 12:04:00,27.7,21.1,30.17,NNW,343,3.0,5.0,76,0.00,,---,0.00,VWS V14.01,2013-01-01 17:04:00,
2013-01-01 12:09:00,27.5,20.9,30.17,NW,312,1.0,5.0,76,0.00,,---,0.00,VWS V14.01,2013-01-01 17:09:00,
2013-01-01 12:14:00,27.5,21.2,30.18,NW,309,1.0,5.0,77,0.00,,---,0.00,VWS V14.01,2013-01-01 17:14:00,
2013-01-01 12:19:00,28.0,21.7,30.18,NW,309,0.0,5.0,77,0.00,,---,0.00,VWS V14.01,2013-01-01 17:19:00,
2013-01-01 12:24:00,29.0,22.1,30.18,SE,143,1.0,5.0,75,0.00,,---,0.00,VWS V14.01,2013-01-01 17:24:00,
2013-01-01 12:30:00,28.9,21.7,30.18,South,170,0.0,5.0,74,0.00,,---,0.00,VWS V14.01,2013-01-01 17:30:00,
2013-01-01 12:35:00,28.8,21.6,30.18,SE,131,1.0,3.0,74,0.00,,---,0.00,VWS V14.01,2013-01-01 17:35:00,
2013-01-01 12:40:00,28.7,21.8,30.18,SE,143,2.0,5.0,75,0.00,,---,0.00,VWS V14.01,2013-01-01 17:40:00,
2013-01-01 12:45:00,28.7,21.5,30.18,SW,232,3.0,5.0,74,0.00,,---,0.00,VWS V14.01,2013-01-01 17:45:00,
2013-01-01 12:50:00,28.5,21.3,30.17,SW,229,1.0,5.0,74,0.00,,---,0.00,VWS V14.01,2013-01-01 17:50:00,
2013-01-01 12:56:00,28.5,21.6,30.17,SE,131,1.0,5.0,75,0.00,,---,0.00,VWS V14.01,2013-01-01 17:56:00,
2013-01-01 13:00:00,27.2,21.9,30.16,West,263,1.0,4.0,80,0.00,,---,0.00,VWS V14.01,2013-01-01 18:00:00,
2013-01-01 13:01:00,28.3,21.4,30.17,SE,134,1.0,3.0,75,0.00,,---,0.00,VWS V14.01,2013-01-01 18:01:00,
2013-01-01 13:06:00,28.1,21.2,30.17,SSE,163,1.0,5.0,75,0.00,,---,0.00,VWS V14.01,2013-01-01 18:06:00,
2013-01-01 13:11:00,28.0,21.4,30.16,SSW,193,3.0,5.0,76,0.00,,---,0.00,VWS V14.01,2013-01-01 18:11:00,
2013-01-01 13:16:00,27.7,21.1,30.16,SE,124,3.0,5.0,76,0.00,,---,0.00,VWS V14.01,2013-01-01 18:16:00,
2013-01-01 13:22:00,27.4,21.1,30.16,SE,140,1.0,5.0,77,0.00,,---,0.00,VWS V14.01,2013-01-01 18:22:00,
2013-01-01 13:27:00,27.4,21.5,30.16,SSW,195,2.0,5.0,78,0.00,,---,0.00,VWS V14.01,2013-01-01 18:27:00,
2013-01-01 13:30:00,27.0,22.2,30.16,SSW,202,2.0,4.0,82,0.00,,---,0.00,VWS V14.01,2013-01-01 18:30:00,
2013-01-01 13:32:00,27.5,21.5,30.16,South,174,1.0,2.0,78,0.00,,---,0.00,VWS V14.01,2013-01-01 18:32:00,
2013-01-01 13:37:00,27.5,21.5,30.15,SSW,211,3.0,4.0,78,0.00,,---,0.00,VWS V14.01,2013-01-01 18:37:00,
2013-01-01 13:42:00,27.5,21.9,30.16,SSW,195,1.0,4.0,79,0.00,,---,0.00,VWS V14.01,2013-01-01 18:42:00,
2013-01-01 13:48:00,27.4,21.8,30.16,WSW,240,2.0,4.0,79,0.00,,---,0.00,VWS V14.01,2013-01-01 18:48:00,
2013-01-01 13:53:00,27.2,21.9,30.16,SSW,195,2.0,4.0,80,0.00,,---,0.00,VWS V14.01,2013-01-01 18:53:00,
2013-01-01 13:58:00,27.3,22.0,30.16,SSW,207,2.0,4.0,80,0.00,,---,0.00,VWS V14.01,2013-01-01 18:58:00,
2013-01-01 14:00:00,26.8,22.0,30.14,NW,309,5.0,14.0,82,0.00,,---,0.00,VWS V14.01,2013-01-01 19:00:00,
2013-01-01 14:03:00,27.1,21.8,30.16,SW,215,1.0,4.0,80,0.00,,---,0.00,VWS V14.01,2013-01-01 19:03:00,
2013-01-01 14:09:00,27.1,21.8,30.16,SSW,202,1.0,4.0,80,0.00,,---,0.00,VWS V14.01,2013-01-01 19:09:00,
2013-01-01 14:14:00,27.1,22.1,30.16,West,262,0.0,4.0,81,0.00,,---,0.00,VWS V14.01,2013-01-01 19:14:00,
2013-01-01 14:19:00,26.9,21.9,30.16,West,269,2.0,4.0,81,0.00,,---,0.00,VWS V14.01,2013-01-01 19:19:00,
2013-01-01 14:24:00,26.9,22.1,30.15,WNW,297,3.0,4.0,82,0.00,,---,0.00,VWS V14.01,2013-01-01 19:24:00,
2013-01-01 14:29:00,27.0,22.2,30.16,SSW,205,1.0,4.0,82,0.00,,---,0.00,VWS V14.01,2013-01-01 19:29:00,
2013-01-01 14:30:00,26.9,21.3,30.15,NW,316,9.0,17.0,79,0.00,,---,0.00,VWS V14.01,2013-01-01 19:30:00,
2013-01-01 14:35:00,27.0,22.0,30.15,SW,217,2.0,5.0,81,0.00,,---,0.00,VWS V14.01,2013-01-01 19:35:00,
2013-01-01 14:40:00,27.0,22.2,30.15,WSW,252,3.0,5.0,82,0.00,,---,0.00,VWS V14.01,2013-01-01 19:40:00,
2013-01-01 14:45:00,27.0,22.5,30.15,SW,222,1.0,6.0,83,0.00,,---,0.00,VWS V14.01,2013-01-01 19:45:00,
2013-01-01 14:50:00,27.0,22.2,30.15,SW,221,2.0,6.0,82,0.00,,---,0.00,VWS V14.01,2013-01-01 19:50:00,
2013-01-01 14:55:00,26.9,22.1,30.14,NW,315,9.0,9.0,82,0.00,,---,0.00,VWS V14.01,2013-01-01 19:55:00,
2013-01-01 15:00:00,26.8,20.0,30.15,NW,305,8.0,15.0,75,0.00,,---,0.00,VWS V14.01,2013-01-01 20:00:00,
2013-01-01 15:01:00,26.8,22.0,30.14,NNW,333,8.0,9.0,82,0.00,,---,0.00,VWS V14.01,2013-01-01 20:01:00,
2013-01-01 15:06:00,26.5,22.0,30.15,NW,312,6.0,17.0,83,0.00,,---,0.00,VWS V14.01,2013-01-01 20:06:00,
2013-01-01 15:11:00,26.5,22.0,30.15,NNW,343,12.0,17.0,83,0.00,,---,0.00,VWS V14.01,2013-01-01 20:11:00,
2013-01-01 15:16:00,26.5,21.8,30.15,NW,314,11.0,17.0,82,0.00,,---,0.00,VWS V14.01,2013-01-01 20:16:00,
2013-01-01 15:22:00,26.5,21.5,30.15,NW,318,8.0,17.0,81,0.00,,---,0.00,VWS V14.01,2013-01-01 20:22:00,
2013-01-01 15:27:00,26.8,21.2,30.15,NNW,336,4.0,17.0,79,0.00,,---,0.00,VWS V14.01,2013-01-01 20:27:00,
2013-01-01 15:30:00,25.6,18.8,30.15,NW,312,4.0,13.0,75,0.00,,---,0.00,VWS V14.01,2013-01-01 20:30:00,
2013-01-01 15:32:00,26.9,21.0,30.15,NW,324,7.0,11.0,78,0.00,,---,0.00,VWS V14.01,2013-01-01 20:32:00,
2013-01-01 15:37:00,26.9,20.7,30.15,WNW,301,6.0,15.0,77,0.00,,---,0.00,VWS V14.01,2013-01-01 20:37:00,
2013-01-01 15:42:00,27.1,20.9,30.16,NW,325,10.0,15.0,77,0.00,,---,0.00,VWS V14.01,2013-01-01 20:42:00,
2013-01-01 15:48:00,27.2,20.6,30.16,NW,314,12.0,15.0,76,0.00,,---,0.00,VWS V14.01,2013-01-01 20:48:00,
2013-01-01 15:53:00,26.9,20.0,30.15,NW,314,8.0,15.0,75,0.00,,---,0.00,VWS V14.01,2013-01-01 20:53:00,
2013-01-01 15:58:00,26.8,20.0,30.15,NW,320,6.0,15.0,75,0.00,,---,0.00,VWS V14.01,2013-01-01 20:58:00,
2013-01-01 16:00:00,25.1,18.6,30.16,NW,311,6.0,10.0,76,0.00,,---,0.00,VWS V14.01,2013-01-01 21:00:00,
2013-01-01 16:03:00,26.7,19.9,30.15,NW,307,7.0,13.0,75,0.00,,---,0.00,VWS V14.01,2013-01-01 21:03:00,
2013-01-01 16:08:00,26.5,19.7,30.15,NNW,332,6.0,13.0,75,0.00,,---,0.00,VWS V14.01,2013-01-01 21:08:00,
2013-01-01 16:14:00,26.1,19.3,30.15,NNW,331,4.0,13.0,75,0.00,,---,0.00,VWS V14.01,2013-01-01 21:14:00,
2013-01-01 16:19:00,25.8,19.0,30.15,NW,316,5.0,13.0,75,0.00,,---,0.00,VWS V14.01,2013-01-01 21:19:00,
2013-01-01 16:24:00,25.8,19.0,30.15,NW,304,3.0,13.0,75,0.00,,---,0.00,VWS V14.01,2013-01-01 21:24:00,
2013-01-01 16:29:00,25.6,18.8,30.15,NW,326,5.0,13.0,75,0.00,,---,0.00,VWS V14.01,2013-01-01 21:29:00,
2013-01-01 16:30:00,25.6,18.8,30.15,NW,312,4.0,13.0,75,0.00,,---,0.00,VWS V14.01,2013-01-01 21:30:00,
2013-01-01 16:34:00,25.6,18.8,30.15,WNW,302,4.0,10.0,75,0.00,,---,0.00,VWS V14.01,2013-01-01 21:34:00,
2013-01-01 16:40:00,25.7,18.9,30.15,WNW,301,6.0,10.0,75,0.00,,---,0.00,VWS V14.01,2013-01-01 21:40:00,
2013-01-01 16:45:00,25.8,19.0,30.16,NNW,340,2.0,10.0,75,0.00,,---,0.00,VWS V14.01,2013-01-01 21:45:00,
2013-01-01 16:50:00,25.6,18.8,30.16,WNW,297,6.0,10.0,75,0.00,,---,0.00,VWS V14.01,2013-01-01 21:50:00,
2013-01-01 16:55:00,25.3,18.8,30.15,NNW,329,4.0,10.0,76,0.00,,---,0.00,VWS V14.01,2013-01-01 21:55:00,
2013-01-01 17:00:00,25.1,18.6,30.16,NW,311,6.0,10.0,76,0.00,,---,0.00,VWS V14.01,2013-01-01 22:00:00,
2013-01-01 17:06:00,25.0,18.8,30.16,NW,320,6.0,8.0,77,0.00,,---,0.00,VWS V14.01,2013-01-01 22:06:00,
2013-01-01 17:11:00,25.0,18.8,30.16,NW,307,5.0,8.0,77,0.00,,---,0.00,VWS V14.01,2013-01-01 22:11:00,
2013-01-01 17:16:00,24.9,18.7,30.15,WNW,299,3.0,9.0,77,0.00,,---,0.00,VWS V14.01,2013-01-01 22:16:00,
2013-01-01 17:21:00,24.8,18.9,30.15,NNW,328,5.0,9.0,78,0.00,,---,0.00,VWS V14.01,2013-01-01 22:21:00,
2013-01-01 17:26:00,24.7,18.5,30.16,NW,325,5.0,9.0,77,0.00,,---,0.00,VWS V14.01,2013-01-01 22:26:00,
2013-01-01 17:30:00,21.8,16.3,30.16,NW,315,0.0,6.0,79,0.00,,---,0.00,VWS V14.01,2013-01-01 22:30:00,
2013-01-01 17:32:00,24.5,18.3,30.16,NW,311,6.0,6.0,77,0.00,,---,0.00,VWS V14.01,2013-01-01 22:32:00,
2013-01-01 17:37:00,24.4,18.2,30.16,NNW,329,3.0,7.0,77,0.00,,---,0.00,VWS V14.01,2013-01-01 22:37:00,
2013-01-01 17:42:00,24.1,18.0,30.16,NNW,340,3.0,8.0,77,0.00,,---,0.00,VWS V14.01,2013-01-01 22:42:00,
2013-01-01 17:47:00,23.8,17.7,30.16,NW,319,8.0,9.0,77,0.00,,---,0.00,VWS V14.01,2013-01-01 22:47:00,
2013-01-01 17:53:00,23.4,17.3,30.16,NW,323,3.0,9.0,77,0.00,,---,0.00,VWS V14.01,2013-01-01 22:53:00,
2013-01-01 17:58:00,23.1,17.0,30.16,NW,308,4.0,9.0,77,0.00,,---,0.00,VWS V14.01,2013-01-01 22:58:00,
2013-01-01 18:00:00,20.6,15.7,30.18,West,260,0.0,4.0,81,0.00,,---,0.00,VWS V14.01,2013-01-01 23:00:00,
2013-01-01 18:03:00,22.9,16.8,30.16,WNW,290,4.0,6.0,77,0.00,,---,0.00,VWS V14.01,2013-01-01 23:03:00,
2013-01-01 18:08:00,22.6,16.8,30.16,NW,322,3.0,6.0,78,0.00,,---,0.00,VWS V14.01,2013-01-01 23:08:00,
2013-01-01 18:13:00,22.3,16.5,30.16,WNW,300,3.0,6.0,78,0.00,,---,0.00,VWS V14.01,2013-01-01 23:13:00,
2013-01-01 18:19:00,22.2,16.4,30.16,NW,311,2.0,6.0,78,0.00,,---,0.00,VWS V14.01,2013-01-01 23:19:00,
2013-01-01 18:24:00,21.9,16.4,30.16,WNW,301,1.0,6.0,79,0.00,,---,0.00,VWS V14.01,2013-01-01 23:24:00,
2013-01-01 18:29:00,21.8,16.3,30.16,NW,304,1.0,6.0,79,0.00,,---,0.00,VWS V14.01,2013-01-01 23:29:00,
2013-01-01 18:30:00,21.8,16.3,30.16,NW,315,0.0,6.0,79,0.00,,---,0.00,VWS V14.01,2013-01-01 23:30:00,
2013-01-01 18:34:00,21.5,16.0,30.16,WSW,255,0.0,1.0,79,0.00,,---,0.00,VWS V14.01,2013-01-01 23:34:00,
2013-01-01 18:39:00,21.3,16.1,30.17,WNW,285,0.0,1.0,80,0.00,,---,0.00,VWS V14.01,2013-01-01 23:39:00,
2013-01-01 18:45:00,21.0,15.8,30.17,WNW,285,0.0,1.0,80,0.00,,---,0.00,VWS V14.01,2013-01-01 23:45:00,
2013-01-01 18:50:00,20.8,15.9,30.17,WNW,289,1.0,3.0,81,0.00,,---,0.00,VWS V14.01,2013-01-01 23:50:00,
2013-01-01 18:55:00,20.7,15.8,30.17,WNW,298,2.0,4.0,81,0.00,,---,0.00,VWS V14.01,2013-01-01 23:55:00,
2013-01-01 19:00:00,20.6,15.7,30.18,West,264,0.0,4.0,81,0.00,,---,0.00,VWS V14.01,2013-01-02 00:00:00,
2013-01-01 19:05:00,20.4,15.5,30.18,WSW,249,0.0,0.0,81,0.00,,---,0.00,VWS V14.01,2013-01-02 00:05:00,
2013-01-01 19:11:00,20.2,15.3,30.18,SW,236,1.0,2.0,81,0.00,,---,0.00,VWS V14.01,2013-01-02 00:11:00,
2013-01-01 19:16:00,20.0,15.1,30.17,West,277,1.0,2.0,81,0.00,,---,0.00,VWS V14.01,2013-01-02 00:16:00,
2013-01-01 19:21:00,19.7,15.1,30.18,West,276,2.0,2.0,82,0.00,,---,0.00,VWS V14.01,2013-01-02 00:21:00,
2013-01-01 19:26:00,19.5,14.9,30.18,WSW,252,0.0,2.0,82,0.00,,---,0.00,VWS V14.01,2013-01-02 00:26:00,
2013-01-01 19:30:00,16.4,12.9,30.19,SSW,195,0.0,0.0,86,0.00,,---,0.00,VWS V14.01,2013-01-02 00:30:00,
2013-01-01 19:31:00,19.1,14.5,30.18,West,259,0.0,1.0,82,0.00,,---,0.00,VWS V14.01,2013-01-02 00:31:00,
2013-01-01 19:37:00,18.9,14.3,30.18,West,259,0.0,1.0,82,0.00,,---,0.00,VWS V14.01,2013-01-02 00:37:00,
2013-01-01 19:42:00,18.2,13.9,30.19,West,259,0.0,1.0,83,0.00,,---,0.00,VWS V14.01,2013-01-02 00:42:00,
2013-01-01 19:47:00,17.7,13.7,30.18,West,259,0.0,1.0,84,0.00,,---,0.00,VWS V14.01,2013-01-02 00:47:00,
2013-01-01 19:52:00,17.8,14.1,30.19,West,259,0.0,1.0,85,0.00,,---,0.00,VWS V14.01,2013-01-02 00:52:00,
2013-01-01 19:58:00,17.6,13.6,30.19,WSW,252,0.0,1.0,84,0.00,,---,0.00,VWS V14.01,2013-01-02 00:58:00,
2013-01-01 20:00:00,15.6,12.4,30.19,SE,141,0.0,0.0,87,0.00,,---,0.00,VWS V14.01,2013-01-02 01:00:00,
2013-01-01 20:03:00,17.3,13.3,30.19,WSW,252,0.0,0.0,84,0.00,,---,0.00,VWS V14.01,2013-01-02 01:03:00,
2013-01-01 20:08:00,17.0,13.3,30.19,SW,229,0.0,0.0,85,0.00,,---,0.00,VWS V14.01,2013-01-02 01:08:00,
2013-01-01 20:13:00,17.1,13.6,30.19,SW,229,0.0,0.0,86,0.00,,---,0.00,VWS V14.01,2013-01-02 01:13:00,
2013-01-01 20:18:00,17.1,13.6,30.19,SW,228,0.0,0.0,86,0.00,,---,0.00,VWS V14.01,2013-01-02 01:18:00,
2013-01-01 20:24:00,16.9,13.4,30.19,SW,228,0.0,0.0,86,0.00,,---,0.00,VWS V14.01,2013-01-02 01:24:00,
2013-01-01 20:29:00,16.6,13.1,30.19,SSW,195,0.0,0.0,86,0.00,,---,0.00,VWS V14.01,2013-01-02 01:29:00,
2013-01-01 20:30:00,15.0,12.1,30.18,SE,131,0.0,0.0,88,0.00,,---,0.00,VWS V14.01,2013-01-02 01:30:00,
2013-01-01 20:34:00,16.2,13.0,30.19,SSW,195,0.0,0.0,87,0.00,,---,0.00,VWS V14.01,2013-01-02 01:34:00,
2013-01-01 20:39:00,16.2,13.0,30.19,SSW,195,0.0,0.0,87,0.00,,---,0.00,VWS V14.01,2013-01-02 01:39:00,
2013-01-01 20:44:00,16.2,13.0,30.19,SE,146,0.0,0.0,87,0.00,,---,0.00,VWS V14.01,2013-01-02 01:44:00,
2013-01-01 20:50:00,15.8,12.4,30.19,SE,141,0.0,0.0,86,0.00,,---,0.00,VWS V14.01,2013-01-02 01:50:00,
2013-01-01 20:55:00,15.8,12.6,30.19,SE,141,0.0,0.0,87,0.00,,---,0.00,VWS V14.01,2013-01-02 01:55:00,
2013-01-01 21:00:00,15.6,12.4,30.19,SE,141,0.0,0.0,87,0.00,,---,0.00,VWS V14.01,2013-01-02 02:00:00,
2013-01-01 21:05:00,15.6,12.7,30.19,SE,136,0.0,0.0,88,0.00,,---,0.00,VWS V14.01,2013-01-02 02:05:00,
2013-01-01 21:10:00,15.6,12.7,30.19,SE,134,0.0,0.0,88,0.00,,---,0.00,VWS V14.01,2013-01-02 02:10:00,
2013-01-01 21:16:00,15.5,12.6,30.18,SE,136,0.0,0.0,88,0.00,,---,0.00,VWS V14.01,2013-01-02 02:16:00,
2013-01-01 21:21:00,15.4,12.5,30.18,SE,135,0.0,0.0,88,0.00,,---,0.00,VWS V14.01,2013-01-02 02:21:00,
2013-01-01 21:26:00,15.1,12.2,30.18,SE,131,0.0,0.0,88,0.00,,---,0.00,VWS V14.01,2013-01-02 02:26:00,
2013-01-01 21:30:00,17.3,12.5,30.18,WSW,250,1.0,3.0,81,0.00,,---,0.00,VWS V14.01,2013-01-02 02:30:00,
2013-01-01 21:31:00,15.0,12.1,30.19,SE,131,0.0,0.0,88,0.00,,---,0.00,VWS V14.01,2013-01-02 02:31:00,
2013-01-01 21:36:00,14.9,12.2,30.18,SE,131,0.0,0.0,89,0.00,,---,0.00,VWS V14.01,2013-01-02 02:36:00,
2013-01-01 21:42:00,14.8,12.1,30.18,SE,131,0.0,0.0,89,0.00,,---,0.00,VWS V14.01,2013-01-02 02:42:00,
2013-01-01 21:47:00,14.8,12.1,30.18,SE,133,0.0,0.0,89,0.00,,---,0.00,VWS V14.01,2013-01-02 02:47:00,
2013-01-01 21:52:00,14.5,11.9,30.18,SE,131,0.0,0.0,89,0.00,,---,0.00,VWS V14.01,2013-01-02 02:52:00,
2013-01-01 21:57:00,15.0,12.6,30.18,WNW,283,0.0,0.0,90,0.00,,---,0.00,VWS V14.01,2013-01-02 02:57:00,
2013-01-01 22:00:00,15.3,12.6,30.18,WNW,283,0.0,0.0,89,0.00,,---,0.00,VWS V14.01,2013-01-02 03:00:00,
2013-01-01 22:02:00,15.4,12.7,30.18,West,281,0.0,0.0,89,0.00,,---,0.00,VWS V14.01,2013-01-02 03:02:00,
2013-01-01 22:08:00,16.0,12.8,30.18,WSW,244,0.0,2.0,87,0.00,,---,0.00,VWS V14.01,2013-01-02 03:08:00,
2013-01-01 22:13:00,16.3,12.9,30.18,West,263,0.0,2.0,86,0.00,,---,0.00,VWS V14.01,2013-01-02 03:13:00,
2013-01-01 22:18:00,17.1,13.1,30.18,West,274,0.0,2.0,84,0.00,,---,0.00,VWS V14.01,2013-01-02 03:18:00,
2013-01-01 22:23:00,17.4,12.9,30.18,WSW,255,0.0,3.0,82,0.00,,---,0.00,VWS V14.01,2013-01-02 03:23:00,
2013-01-01 22:29:00,17.4,12.6,30.18,West,260,0.0,3.0,81,0.00,,---,0.00,VWS V14.01,2013-01-02 03:29:00,
2013-01-01 22:30:00,17.9,12.5,30.19,SW,229,0.0,4.0,79,0.00,,---,0.00,VWS V14.01,2013-01-02 03:30:00,
2013-01-01 22:34:00,17.4,12.6,30.18,WNW,283,0.0,3.0,81,0.00,,---,0.00,VWS V14.01,2013-01-02 03:34:00,
2013-01-01 22:39:00,17.6,12.5,30.18,West,271,0.0,3.0,80,0.00,,---,0.00,VWS V14.01,2013-01-02 03:39:00,
2013-01-01 22:44:00,17.5,12.1,30.18,West,269,0.0,3.0,79,0.00,,---,0.00,VWS V14.01,2013-01-02 03:44:00,
2013-01-01 22:49:00,17.3,12.2,30.18,West,276,1.0,3.0,80,0.00,,---,0.00,VWS V14.01,2013-01-02 03:49:00,
2013-01-01 22:55:00,17.6,12.5,30.18,West,278,1.0,4.0,80,0.00,,---,0.00,VWS V14.01,2013-01-02 03:55:00,
2013-01-01 23:00:00,17.9,12.5,30.18,SSW,211,0.0,4.0,79,0.00,,---,0.00,VWS V14.01,2013-01-02 04:00:00,
2013-01-01 23:05:00,17.7,12.3,30.18,SW,214,0.0,1.0,79,0.00,,---,0.00,VWS V14.01,2013-01-02 04:05:00,
2013-01-01 23:10:00,17.7,12.3,30.18,WNW,296,1.0,3.0,79,0.00,,---,0.00,VWS V14.01,2013-01-02 04:10:00,
2013-01-01 23:15:00,17.8,12.4,30.18,WNW,283,1.0,3.0,79,0.00,,---,0.00,VWS V14.01,2013-01-02 04:15:00,
2013-01-01 23:21:00,18.0,12.6,30.18,WNW,295,4.0,4.0,79,0.00,,---,0.00,VWS V14.01,2013-01-02 04:21:00,
2013-01-01 23:26:00,18.0,12.6,30.19,NW,321,0.0,4.0,79,0.00,,---,0.00,VWS V14.01,2013-01-02 04:26:00,
2013-01-01 23:30:00,15.2,11.5,30.20,SW,214,0.0,2.0,85,0.00,,---,0.00,VWS V14.01,2013-01-02 04:30:00,
2013-01-01 23:31:00,17.8,12.4,30.19,SW,229,0.0,0.0,79,0.00,,---,0.00,VWS V14.01,2013-01-02 04:31:00,
2013-01-01 23:36:00,17.5,12.1,30.19,SW,218,0.0,0.0,79,0.00,,---,0.00,VWS V14.01,2013-01-02 04:36:00,
2013-01-01 23:41:00,17.3,12.2,30.19,WSW,248,0.0,1.0,80,0.00,,---,0.00,VWS V14.01,2013-01-02 04:41:00,
2013-01-01 23:47:00,16.9,11.8,30.19,WSW,248,0.0,1.0,80,0.00,,---,0.00,VWS V14.01,2013-01-02 04:47:00,
2013-01-01 23:52:00,16.7,11.9,30.19,WNW,295,0.0,1.0,81,0.00,,---,0.00,VWS V14.01,2013-01-02 04:52:00,
2013-01-01 23:57:00,16.5,11.7,30.18,WSW,255,0.0,1.0,81,0.00,,---,0.00,VWS V14.01,2013-01-02 04:57:00,